Hourly Weather Klebanowice

Today, 27 July, Tuesday

Time Temperature Precipitation Wind Pressure Humidity
00:00 +18°C° 0 mm 2 mps 747 mmHg 87%
01:00 +19°C° 0 mm 1 mps 747 mmHg 88%
02:00 +18°C° 0 mm 2 mps 747 mmHg 88%
03:00 +17°C° 0 mm 2 mps 747 mmHg 89%
04:00 +17°C° 0 mm 2 mps 747 mmHg 89%
05:00 +18°C° 0 mm 2 mps 747 mmHg 85%
06:00 +20°C° 0 mm 3 mps 747 mmHg 80%
07:00 +21°C° 0 mm 3 mps 747 mmHg 75%
08:00 +23°C° 0 mm 4 mps 748 mmHg 67%
09:00 +26°C° 0 mm 4 mps 748 mmHg 59%
10:00 +28°C° 0 mm 4 mps 748 mmHg 50%
11:00 +28°C° 0 mm 4 mps 748 mmHg 47%
12:00 +29°C° 0 mm 4 mps 748 mmHg 43%
13:00 +30°C° 0 mm 4 mps 748 mmHg 39%
14:00 +30°C° 0 mm 4 mps 747 mmHg 39%
15:00 +30°C° 0 mm 4 mps 747 mmHg 39%
16:00 +30°C° 0 mm 4 mps 747 mmHg 39%
17:00 +29°C° 0 mm 3 mps 747 mmHg 46%
18:00 +27°C° 0 mm 2 mps 747 mmHg 53%
19:00 +26°C° 0 mm 2 mps 747 mmHg 60%
20:00 +25°C° 0 mm 1 mps 747 mmHg 62%
21:00 +24°C° 0 mm 1 mps 747 mmHg 65%
22:00 +23°C° 0 mm 1 mps 747 mmHg 68%
23:00 +22°C° 0 mm 1 mps 747 mmHg 70%

Tomorrow, 28 July, Wednesday

Time Temperature Precipitation Wind Pressure Humidity
00:00 +22°C° 0 mm 1 mps 747 mmHg 71%
01:00 +19°C° 0 mm 0 mps 747 mmHg 73%
02:00 +19°C° 0 mm 0 mps 747 mmHg 74%
03:00 +19°C° 0 mm 0 mps 747 mmHg 74%
04:00 +19°C° 0 mm 0 mps 747 mmHg 75%
05:00 +21°C° 0.1 mm 1 mps 747 mmHg 76%
06:00 +22°C° 0.1 mm 1 mps 747 mmHg 77%
07:00 +21°C° 0.1 mm 2 mps 747 mmHg 78%
08:00 +21°C° 0.1 mm 2 mps 747 mmHg 77%
09:00 +23°C° 0.1 mm 1 mps 747 mmHg 77%
10:00 +23°C° 0.1 mm 1 mps 747 mmHg 76%
11:00 +25°C° 0.1 mm 2 mps 747 mmHg 68%
12:00 +26°C° 0.1 mm 3 mps 747 mmHg 59%
13:00 +28°C° 0.1 mm 4 mps 747 mmHg 51%
14:00 +27°C° 0.2 mm 5 mps 747 mmHg 54%
15:00 +27°C° 0.2 mm 5 mps 747 mmHg 58%
16:00 +26°C° 0.2 mm 5 mps 747 mmHg 61%
17:00 +25°C° 0 mm 5 mps 747 mmHg 64%
18:00 +23°C° 0 mm 4 mps 747 mmHg 67%
19:00 +22°C° 0 mm 3 mps 747 mmHg 70%
20:00 +21°C° 0 mm 3 mps 747 mmHg 74%
21:00 +20°C° 0 mm 3 mps 747 mmHg 79%
22:00 +19°C° 0 mm 3 mps 748 mmHg 83%
23:00 +18°C° 0 mm 3 mps 748 mmHg 82%

Day after tomorrow, 29 July, Thursday

Time Temperature Precipitation Wind Pressure Humidity
00:00 +18°C° 0 mm 3 mps 748 mmHg 81%
01:00 +18°C° 0 mm 3 mps 748 mmHg 80%
02:00 +17°C° 0 mm 3 mps 748 mmHg 82%
03:00 +17°C° 0 mm 3 mps 748 mmHg 84%
04:00 +17°C° 0 mm 2 mps 748 mmHg 86%
05:00 +18°C° 0 mm 3 mps 748 mmHg 80%
06:00 +20°C° 0 mm 3 mps 748 mmHg 74%
07:00 +21°C° 0 mm 4 mps 747 mmHg 68%
08:00 +23°C° 0 mm 4 mps 748 mmHg 61%
09:00 +25°C° 0 mm 5 mps 748 mmHg 55%
10:00 +26°C° 0 mm 5 mps 748 mmHg 49%
11:00 +27°C° 0 mm 5 mps 747 mmHg 45%
12:00 +28°C° 0 mm 5 mps 747 mmHg 40%
13:00 +29°C° 0 mm 5 mps 747 mmHg 36%
14:00 +29°C° 0 mm 5 mps 747 mmHg 36%
15:00 +29°C° 0 mm 4 mps 746 mmHg 35%
16:00 +29°C° 0 mm 4 mps 746 mmHg 35%
17:00 +28°C° 0 mm 3 mps 746 mmHg 41%
18:00 +26°C° 0 mm 2 mps 746 mmHg 47%
19:00 +25°C° 0 mm 1 mps 746 mmHg 53%
20:00 +24°C° 0 mm 2 mps 746 mmHg 56%
21:00 +23°C° 0 mm 2 mps 746 mmHg 58%
22:00 +21°C° 0 mm 2 mps 746 mmHg 61%
23:00 +21°C° 0 mm 2 mps 746 mmHg 63%

30 July, Friday

Time Temperature Precipitation Wind Pressure Humidity
00:00 +20°C° 0 mm 3 mps 746 mmHg 65%
01:00 +20°C° 0 mm 3 mps 746 mmHg 67%
02:00 +19°C° 0 mm 3 mps 745 mmHg 70%
03:00 +18°C° 0 mm 3 mps 745 mmHg 73%
04:00 +18°C° 0 mm 3 mps 745 mmHg 75%
05:00 +18°C° 0 mm 3 mps 745 mmHg 72%
06:00 +19°C° 0 mm 3 mps 746 mmHg 68%
07:00 +20°C° 0 mm 4 mps 746 mmHg 65%
08:00 +21°C° 0 mm 4 mps 746 mmHg 58%
09:00 +22°C° 0 mm 5 mps 746 mmHg 52%
10:00 +23°C° 0 mm 6 mps 746 mmHg 46%
11:00 +24°C° 0 mm 6 mps 746 mmHg 42%
12:00 +26°C° 0 mm 6 mps 745 mmHg 38%
13:00 +26°C° 0 mm 6 mps 745 mmHg 34%
14:00 +26°C° 0 mm 6 mps 745 mmHg 35%
15:00 +26°C° 0 mm 6 mps 745 mmHg 35%
16:00 +26°C° 0 mm 6 mps 745 mmHg 35%
17:00 +25°C° 0 mm 5 mps 745 mmHg 39%
18:00 +23°C° 0 mm 4 mps 745 mmHg 44%
19:00 +22°C° 0 mm 3 mps 745 mmHg 48%
20:00 +20°C° 0 mm 3 mps 745 mmHg 52%
21:00 +19°C° 0 mm 3 mps 745 mmHg 56%
22:00 +18°C° 0 mm 2 mps 745 mmHg 60%
23:00 +17°C° 0 mm 2 mps 745 mmHg 64%

31 July, Saturday

Time Temperature Precipitation Wind Pressure Humidity
00:00 +16°C° 0 mm 2 mps 745 mmHg 68%
01:00 +16°C° 0 mm 2 mps 745 mmHg 72%
02:00 +15°C° 0 mm 2 mps 745 mmHg 75%
03:00 +15°C° 0 mm 2 mps 746 mmHg 78%
04:00 +14°C° 0 mm 2 mps 746 mmHg 81%
05:00 +16°C° 0 mm 3 mps 746 mmHg 76%
06:00 +17°C° 0 mm 3 mps 746 mmHg 70%
07:00 +19°C° 0 mm 3 mps 746 mmHg 65%
08:00 +20°C° 0 mm 3 mps 746 mmHg 57%
09:00 +22°C° 0 mm 4 mps 746 mmHg 50%
10:00 +25°C° 0 mm 4 mps 746 mmHg 43%
11:00 +26°C° 0 mm 4 mps 746 mmHg 40%
12:00 +27°C° 0 mm 4 mps 745 mmHg 37%
13:00 +27°C° 0 mm 4 mps 745 mmHg 34%
14:00 +28°C° 0 mm 4 mps 745 mmHg 34%
15:00 +28°C° 0 mm 4 mps 745 mmHg 34%
16:00 +28°C° 0 mm 4 mps 744 mmHg 34%
17:00 +27°C° 0 mm 3 mps 744 mmHg 40%
18:00 +25°C° 0 mm 3 mps 744 mmHg 46%
19:00 +24°C° 0 mm 2 mps 744 mmHg 52%
20:00 +23°C° 0 mm 2 mps 744 mmHg 54%
21:00 +22°C° 0 mm 1 mps 744 mmHg 55%
22:00 +21°C° 0 mm 1 mps 744 mmHg 56%
23:00 +20°C° 0 mm 1 mps 744 mmHg 57%

1 August, Sunday

Time Temperature Precipitation Wind Pressure Humidity
00:00 +20°C° 0 mm 1 mps 744 mmHg 57%
01:00 +19°C° 0 mm 1 mps 744 mmHg 58%
02:00 +19°C° 0 mm 1 mps 743 mmHg 58%
03:00 +19°C° 0 mm 1 mps 743 mmHg 58%
04:00 +19°C° 0 mm 1 mps 743 mmHg 58%
05:00 +19°C° 0.9 mm 1 mps 743 mmHg 66%
06:00 +19°C° 0.9 mm 1 mps 742 mmHg 74%
07:00 +18°C° 0.9 mm 1 mps 742 mmHg 82%
08:00 +17°C° 2 mm 2 mps 742 mmHg 84%
09:00 +17°C° 2 mm 2 mps 742 mmHg 87%
10:00 +17°C° 2 mm 2 mps 742 mmHg 89%
11:00 +18°C° 0.4 mm 1 mps 742 mmHg 89%
12:00 +18°C° 0.4 mm 1 mps 743 mmHg 89%
13:00 +18°C° 0.4 mm 1 mps 743 mmHg 89%
14:00 +18°C° 0.2 mm 1 mps 743 mmHg 88%
15:00 +18°C° 0.2 mm 1 mps 743 mmHg 87%
16:00 +18°C° 0.2 mm 1 mps 743 mmHg 86%
17:00 +18°C° 0.2 mm 1 mps 743 mmHg 88%
18:00 +17°C° 0.2 mm 2 mps 743 mmHg 89%
19:00 +16°C° 0.2 mm 2 mps 743 mmHg 90%
20:00 +16°C° 0.4 mm 2 mps 743 mmHg 92%
21:00 +16°C° 0.4 mm 2 mps 743 mmHg 94%
22:00 +15°C° 0.4 mm 2 mps 743 mmHg 96%
23:00 +14°C° 2 mm 3 mps 743 mmHg 96%
Show more